User: anonymous   Login
Location: Asheville, NC
(35.6000°N, 82.5500°W)
Time: 12:06:43
(UTC-04:00)
Language:

DOVE 4 - Orbit

View from above orbital plane
View from above orbital plane
View from above satellite
View from above satellite

Ground track
Ground track

The orbit data is extracted from the following two-line orbital elements,

1 39430U 13066Q   18224.94824274 +.00000131 +00000-0 +32384-4 0  9991
2 39430 097.7021 197.7504 0152131 150.8751 210.1043 14.59107383251246
Epoch (UTC): 12 August 2018 22:45:28
Eccentricity: 0.0152131
inclination: 97.7021°
perigee height: 588 km
apogee height: 803 km
right ascension of ascending node: 197.7504°
argument of perigee: 150.8751°
revolutions per day: 14.59107383
mean anomaly at epoch: 210.1043°
orbit number at epoch: 25124

The dashed part of the orbit path shows where the satellite is in the earth's shadow,  

DLR